User: anonymous
Location: Bush Observatory
(40.2653°N, 94.3194°W)
Time: 08:22:57
(UTC-05:00)
Language:

Cosmos 1933 Rocket - Orbit

View from above orbital plane
View from above orbital plane
View from above satellite
View from above satellite

Ground track
Ground track

The orbit data is extracted from the following two-line orbital elements,

1 18959U 88020B   14234.80416017  .00000222  00000-0  24543-4 0  3230
2 18959 082.5404 152.4551 0015444 292.0314 120.3411 14.82838467428006
Epoch (UTC): 22 August 2014 19:17:59
Eccentricity: 0.0015444
inclination: 82.5404°
perigee height: 609 km
apogee height: 631 km
right ascension of ascending node: 152.4551°
argument of perigee: 292.0314°
revolutions per day: 14.82838467
mean anomaly at epoch: 120.3411°
orbit number at epoch: 42800

The dashed part of the orbit path shows where the satellite is in the earth's shadow,  

DLR